Home   Weather   Broome   Past weeks

Flag for Australia Past Weather in Broome, Western Australia, Australia — Yesterday and Last 2 Weeks

Now
83 °F

Passing clouds.


Feels Like: 88 °F
Forecast: 81 / 88 °F
Wind: 12 mph from Northwest

Location: Broome Airport

Current Time: Jan 23, 2017 at 12:38:34 am

Latest Report: Jan 23, 2017 at 12:00 am


Visibility: N/A

Pressure: 29.76 "Hg

Humidity: 68%

Dew Point: 71 °F

Location of BroomeLocation

Past Weather in Broome — Graph

°F

Broome Temperature Yesterday

Maximum temperature yesterday: 89 °F (at 12:00 pm)
Minimum temperature yesterday: 83 °F (at 2:00 am)
Average temperature yesterday: 86 °F

High & Low Weather Summary for the Past Weeks

 TemperatureHumidityPressure
High91 °F (Jan 9, 2:00 pm)94% (Jan 18, 6:00 am)29.81 "Hg (Jan 18, 6:00 am)
Low80 °F (Jan 18, 11:00 pm)54% (Jan 21, 2:00 am)29.56 "Hg (Jan 8, 3:00 am)
Average85 °F72%29.69 "Hg
* Reported Jan 7 11:00 pm — Jan 22 11:00 pm, Broome, Weather by CustomWeather, © 2017

Note: Actual official high and low records may vary slightly from our data, if they occured in-between our weather recording intervals... More about our weather records

Advertising

Broome Weather History for the Previous 24 Hours

Scroll right to see more
 ConditionsComfort  
Time TempWeatherWind HumidityBarometerVisibility
11:00 pm
Sun, Jan 22
83 °FWarm.12 mph67%29.77 "HgN/A
9:00 pm83 °FWarm.10 mph67%29.77 "HgN/A
8:00 pm84 °FWarm.9 mph64%29.76 "HgN/A
6:00 pm86 °FWarm.13 mph60%29.73 "HgN/A
5:00 pm87 °FWarm.13 mph61%29.72 "HgN/A
3:00 pm89 °FHot.14 mph57%29.73 "HgN/A
2:00 pm88 °FHot.14 mph55%29.75 "HgN/A
12:00 pm89 °FHot.13 mph57%29.79 "HgN/A
11:00 am88 °FWarm.13 mph60%29.80 "HgN/A
9:00 am87 °FPassing clouds.13 mph61%29.81 "HgN/A
8:00 am86 °FWarm.13 mph64%29.80 "HgN/A
6:00 am83 °FScattered clouds.10 mph70%29.79 "HgN/A
5:00 am84 °FWarm.12 mph69%29.77 "HgN/A
3:00 am83 °FPassing clouds.12 mph70%29.76 "HgN/A
2:00 am83 °FWarm.10 mph72%29.76 "HgN/A
12:00 am84 °FPassing clouds.12 mph69%29.79 "HgN/A
Weather by CustomWeather, © 2017

See weather overviewHow to use our weather pages